FIA

Advertising

SS10 Porto-Vecchio - Palombaggia (Power Stage) (10.42 km)

Spéciale-

Pos # Pilote Temps Diff Préc. Diff 1er
1. 7 GBRK. MEEKE 6:09.0
2. 9 NORA. MIKKELSEN 6:09.5 +0.5 +0.5
3. 1 FRAS. OGIER 6:10.6 +1.1 +1.6
4. 2 FINJ. LATVALA 6:10.7 +0.1 +1.7
5. 3 BELT. NEUVILLE 6:13.2 +2.5 +4.2
6. 20 NZLH. PADDON 6:13.5 +0.3 +4.5
7. 4 ESPD. SORDO 6:15.2 +1.7 +6.2
8. 5 NORM. OSTBERG 6:16.3 +1.1 +7.3
9. 8 IRLC. BREEN 6:16.8 +0.5 +7.8
10. 6 FRAE. CAMILLI 6:21.2 +4.4 +12.2
11. 12 ESTO. TANAK 6:26.1 +4.9 +17.1
12. 32 CZEJ. KOPECKY 6:26.7 +0.6 +17.7
13. 84 FINT. SUNINEN 6:27.8 +1.1 +18.8
14. 37 ITAL. BERTELLI 6:28.1 +0.3 +19.1
15. 31 GBRE. EVANS 6:30.0 +1.9 +21.0
16. 85 FRAS. MICHEL 6:33.2 +3.2 +24.2
17. 86 ITAF. ANDOLFI 6:34.0 +0.8 +25.0
18. 36 FRAY. BONATO 6:35.7 +1.7 +26.7
19. 34 FRAP. LOUBET 6:38.5 +2.8 +29.5
20. 40 FRAJ. MAURIN 6:38.5 +0.0 +29.5
21. 41 POLM. SZCZEPANIAK 6:48.0 +9.5 +39.0
22. 93 FRAT. MATTEI 6:58.2 +10.2 +49.2
23. 64 FRAT. FOLB 6:58.3 +0.1 +49.3
24. 72 FRAY. ROSSEL 6:59.6 +1.3 +50.6
25. 63 SVKM. KOCI 7:03.1 +3.5 +54.1
26. 65 FRAV. DUBERT 7:04.0 +0.9 +55.0
27. 73 FRAL. PELLIER 7:04.7 +0.7 +55.7
28. 88 IRLE. BOLAND 7:05.1 +0.4 +56.1
29. 33 FRAQ. GILBERT 7:08.5 +3.4 +59.5
30. 70 CHEM. BURRI 7:09.2 +0.7 +1:00.2
31. 69 FRAI. GIUSTI 7:27.9 +18.7 +1:18.9
32. 106 FRAA. MARIANI 7:29.9 +2.0 +1:20.9
33. 101 FRAN. LECA 7:34.3 +4.4 +1:25.3
34. 68 ITAE. BRAZZOLI 7:35.9 +1.6 +1:26.9
35. 102 FRAE. FILIPPI 7:36.2 +0.3 +1:27.2
36. 61 ITAS. TEMPESTINI 7:38.1 +1.9 +1:29.1
37. 62 NORO. VEIBY 7:40.7 +2.6 +1:31.7
38. 103 FRAY. WENDLING 7:41.3 +0.6 +1:32.3
39. 113 FRAA. MARI 7:42.8 +1.5 +1:33.8
40. 92 FRAJ. PLISSON 7:48.9 +6.1 +1:39.9
41. 117 FRAL. SALINI 7:57.8 +8.9 +1:48.8
42. 116 FRAF. FOISSAC 8:02.2 +4.4 +1:53.2
43. 114 FRAV. RAYNAUD 8:07.3 +5.1 +1:58.3
44. 115 FRAP. GENTY 8:12.5 +5.2 +2:03.5
45. 104 CANI. CRERAR 8:14.3 +1.8 +2:05.3
46. 120 FRAE. BERTIN 8:20.6 +6.3 +2:11.6
47. 110 FRAJ. DE MEYER 8:20.9 +0.3 +2:11.9
48. 100 FRAC. CARDI 8:29.0 +8.1 +2:20.0
49. 107 FRAC. BENSIMON 8:31.8 +2.8 +2:22.8
50. 97 FRAJ. KEMP 8:39.7 +7.9 +2:30.7
51. 118 FRAP. MARCHAND 8:55.2 +15.5 +2:46.2
52. 119 FRAA. DI PAOLO 8:55.2 +0.0 +2:46.2

Général-

Pos # Pilote Temps Diff Préc. Diff 1er
1. 1 FRAS. OGIER 4:07:17.0
2. 3 BELT. NEUVILLE 4:08:03.4 +46.4 +46.4
3. 9 NORA. MIKKELSEN 4:08:27.0 +23.6 +1:10.0
4. 2 FINJ. LATVALA 4:08:52.6 +25.6 +1:35.6
5. 8 IRLC. BREEN 4:09:35.6 +43.0 +2:18.6
6. 20 NZLH. PADDON 4:09:53.1 +17.5 +2:36.1
7. 4 ESPD. SORDO 4:10:23.9 +30.8 +3:06.9
8. 6 FRAE. CAMILLI 4:12:10.9 +1:47.0 +4:53.9
9. 5 NORM. OSTBERG 4:12:54.7 +43.8 +5:37.7
10. 12 ESTO. TANAK 4:13:43.6 +48.9 +6:26.6
11. 31 GBRE. EVANS 4:14:22.0 +38.4 +7:05.0
12. 32 CZEJ. KOPECKY 4:14:55.3 +33.3 +7:38.3
13. 36 FRAY. BONATO 4:18:01.6 +3:06.3 +10:44.6
14. 40 FRAJ. MAURIN 4:18:32.1 +30.5 +11:15.1
15. 84 FINT. SUNINEN 4:22:46.9 +4:14.8 +15:29.9
16. 7 GBRK. MEEKE 4:29:52.2 +7:05.3 +22:35.2
17. 37 ITAL. BERTELLI 4:31:26.4 +1:34.2 +24:09.4
18. 86 ITAF. ANDOLFI 4:37:20.1 +5:53.7 +30:03.1
19. 73 FRAL. PELLIER 4:38:19.3 +59.2 +31:02.3
20. 72 FRAY. ROSSEL 4:38:52.8 +33.5 +31:35.8
21. 63 SVKM. KOCI 4:39:35.2 +42.4 +32:18.2
22. 85 FRAS. MICHEL 4:41:39.2 +2:04.0 +34:22.2
23. 61 ITAS. TEMPESTINI 4:44:26.8 +2:47.6 +37:09.8
24. 70 CHEM. BURRI 4:46:22.7 +1:55.9 +39:05.7
25. 34 FRAP. LOUBET 4:47:45.3 +1:22.6 +40:28.3
26. 88 IRLE. BOLAND 4:49:50.3 +2:05.0 +42:33.3
27. 64 FRAT. FOLB 4:50:11.9 +21.6 +42:54.9
28. 33 FRAQ. GILBERT 4:52:20.5 +2:08.6 +45:03.5
29. 93 FRAT. MATTEI 4:56:34.4 +4:13.9 +49:17.4
30. 65 FRAV. DUBERT 4:57:59.4 +1:25.0 +50:42.4
31. 62 NORO. VEIBY 5:01:58.7 +3:59.3 +54:41.7
32. 68 ITAE. BRAZZOLI 5:04:16.1 +2:17.4 +56:59.1
33. 41 POLM. SZCZEPANIAK 5:05:05.2 +49.1 +57:48.2
34. 100 FRAC. CARDI 5:05:58.8 +53.6 +58:41.8
35. 101 FRAN. LECA 5:07:55.5 +1:56.7 +1:00:38.5
36. 102 FRAE. FILIPPI 5:09:44.7 +1:49.2 +1:02:27.7
37. 92 FRAJ. PLISSON 5:13:21.7 +3:37.0 +1:06:04.7
38. 103 FRAY. WENDLING 5:15:21.9 +2:00.2 +1:08:04.9
39. 117 FRAL. SALINI 5:15:40.5 +18.6 +1:08:23.5
40. 106 FRAA. MARIANI 5:15:43.9 +3.4 +1:08:26.9
41. 110 FRAJ. DE MEYER 5:23:47.4 +8:03.5 +1:16:30.4
42. 113 FRAA. MARI 5:28:17.2 +4:29.8 +1:21:00.2
43. 116 FRAF. FOISSAC 5:29:06.6 +49.4 +1:21:49.6
44. 107 FRAC. BENSIMON 5:32:25.4 +3:18.8 +1:25:08.4
45. 120 FRAE. BERTIN 5:35:57.4 +3:32.0 +1:28:40.4
46. 97 FRAJ. KEMP 5:36:53.8 +56.4 +1:29:36.8
47. 104 CANI. CRERAR 5:37:51.4 +57.6 +1:30:34.4
48. 119 FRAA. DI PAOLO 5:40:34.7 +2:43.3 +1:33:17.7
49. 118 FRAP. MARCHAND 5:46:39.1 +6:04.4 +1:39:22.1
50. 69 FRAI. GIUSTI 5:51:22.0 +4:42.9 +1:44:05.0
51. 115 FRAP. GENTY 5:51:53.5 +31.5 +1:44:36.5
52. 114 FRAV. RAYNAUD 5:52:19.2 +25.7 +1:45:02.2

Advertising